Вернуться в каталог

COSMOS 1156

АктивенНавигацияLEO
NORAD 11691·PAYLOAD·🇷🇺 Russia

Запущен Feb 11, 1980 с Plesetsk Cosmodrome

Loading…

Ближайшие Пролёты (ближайшие 24 часа)

TLE

СвежийSource: Space-Track

Эпоха: Sep 14, 2026, 01:46 UTC

1 11691U 80012A   26257.07406759 -.00000025  00000-0 -55160-4 0  9999
2 11691  74.0178 270.6832 0048112 138.7918 250.6291 12.56900578137557

Отслеживайте COSMOS 1156 в реальном времени с AllMySat

Download on the App Store